#timestamp,LO_Frequency,Hit,StdDev 
1529643615.8,286047002.2,N
1529643635.7,286047000.1,N
1529643655.7,286046999.3,N
1529643675.5,286047000.0,N
1529643695.3,286047002.4,N
1529643715.2,286047000.0,N
1529643735.0,286047002.2,N
1529643735.9,286047002.2,N
1529643755.8,286047001.7,N
1529643775.6,286047001.6,N
1529643795.4,286047000.4,N
1529643815.3,286046998.4,N
1529643835.1,286047000.4,N
1529643855.9,286047001.1,N
1529643875.7,286047000.5,N
1529643895.5,286047002.4,N
1529643915.4,286047002.8,N
1529643935.2,286046999.7,N
1529643955.0,286047001.2,N
1529643955.9,286047001.2,N
1529643975.8,286046998.9,N
1529643995.6,286046998.6,N
1529644015.5,286047001.5,N
1529644035.3,286047002.0,N
1529644055.1,286047001.9,N
1529644075.9,286047004.4,Y
1529644095.7,286047000.1,P
1529644115.6,286047002.8,P
1529644135.4,286047001.1,N
1529644155.2,286047001.6,N
1529644175.1,286047001.4,N
1529644176.0,286047001.4,N
1529644195.8,286047002.0,N
1529644215.6,286047001.7,N
1529644235.5,286047002.2,Y
1529644255.3,286047000.0,P
1529644275.2,286047002.5,P
1529644295.9,286047004.4,P
1529644315.7,286047001.7,N
1529644335.6,286047001.3,N
1529644355.4,286047003.8,N
1529644375.2,286047003.9,N
1529644395.1,286047002.5,N
1529644396.0,286047002.5,N
1529644415.8,286047001.4,N
1529644435.7,286047001.6,N
1529644455.5,286047001.5,N
1529644475.3,286047002.4,N
1529644495.2,286047001.4,N
1529644515.9,286047003.2,N
1529644535.7,286047001.7,N
1529644555.6,286047003.9,Y
1529644575.4,286047000.7,P
1529644595.3,286046999.3,N
1529644615.1,286046997.1,N
1529644616.0,286046997.1,N
1529644635.8,286046998.9,N
1529644655.7,286046996.7,N
1529644675.5,286047001.2,N
1529644695.3,286046998.3,N
1529644715.2,286046995.1,N
1529644735.0,286046995.3,N
1529644735.9,286046995.3,N
1529644755.8,286046997.6,N
1529644775.6,286046997.2,N
1529644795.4,286046997.0,N
1529644815.3,286046997.0,N
1529644835.1,286046997.2,N
1529644855.9,286046999.1,N
1529644875.7,286046998.7,N
1529644895.5,286046999.3,N
1529644915.4,286046997.1,N
1529644935.2,286046999.1,N
1529644955.0,286046997.5,N
1529644955.9,286046997.5,N
1529644975.8,286046996.2,N
1529644995.6,286046995.2,N
1529645015.5,286046996.3,N
1529645035.3,286046996.0,N
1529645055.1,286046994.0,Y
1529645075.9,286046996.7,P
1529645095.7,286046998.8,N
1529645115.6,286047000.3,N
1529645135.4,286046998.5,N
1529645155.2,286047000.4,N
1529645175.1,286047001.7,N
1529645176.0,286047001.7,N
1529645195.8,286047005.6,Y
1529645215.6,286047003.6,P
1529645235.5,286047003.6,N
1529645255.3,286047004.4,N
1529645275.2,286047004.1,N
1529645295.9,286047001.3,N
1529645315.7,286047004.2,N
1529645335.6,286047001.9,N
1529645355.0,286046999.8,N
1529645355.9,286046999.8,N
1529645375.7,286047002.8,N
1529645395.5,286047001.6,N
1529645415.3,286047004.4,N
1529645435.2,286047002.7,N
1529645455.0,286047002.5,N
1529645455.9,286047002.5,N
1529645475.8,286047002.6,N
1529645495.6,286047000.4,N
1529645515.4,286047003.9,N
1529645535.3,286047000.9,N
1529645555.1,286047002.7,N
1529645575.8,286047000.1,N
1529645595.7,286047000.4,N
1529645615.5,286047002.8,N
1529645635.4,286047002.7,N
1529645655.2,286047000.2,N
1529645675.0,286047000.3,N
1529645675.9,286047000.3,N
1529645695.8,286047001.9,N
1529645715.6,286047001.4,N
1529645735.4,286047001.4,N
1529645755.3,286047002.7,N
1529645775.1,286046999.7,N
1529645795.9,286047002.0,N
1529645815.7,286047001.7,N
1529645835.5,286047004.1,Y
1529645855.4,286046999.7,P
1529645875.2,286047003.7,P
1529645895.0,286047001.4,N
1529645896.0,286047001.4,N
1529645915.8,286047002.6,N
1529645935.6,286047000.1,N
1529645955.5,286047001.7,N
1529645975.3,286047000.2,N
1529645995.1,286047001.9,N
1529646015.2,286047004.2,Y
1529646035.0,286047002.1,P
1529646035.9,286047002.1,P
1529646055.8,286047000.1,N
1529646075.6,286047000.5,N
1529646095.4,286046998.2,N
1529646115.3,286046998.2,N
1529646135.1,286047000.6,N
1529646155.8,286046998.1,N
1529646175.7,286047000.4,N
1529646195.5,286046998.3,N
1529646215.4,286046994.9,Y
1529646235.2,286046997.1,P
1529646255.0,286046997.8,N
1529646255.9,286046997.8,N
1529646275.8,286046999.3,N
1529646295.6,286047001.0,N
1529646315.5,286046998.6,N
1529646335.3,286046998.2,N
1529646355.1,286047001.0,N
1529646375.9,286046998.3,N
1529646395.7,286047000.2,N
1529646415.5,286046997.0,N
1529646435.4,286046997.0,N
1529646455.2,286046996.7,N
1529646475.1,286046999.2,N
1529646476.0,286046999.2,N
1529646495.8,286046997.4,N
1529646515.6,286046997.9,N
1529646535.5,286046997.5,N
1529646555.3,286046996.7,N
1529646575.2,286046996.8,N
1529646595.9,286047000.9,N
1529646615.7,286046999.8,N
1529646635.6,286047002.7,N
1529646655.4,286047002.1,N
1529646675.2,286047001.2,N
1529646695.1,286046999.4,N
1529646696.0,286046999.4,N
1529646715.8,286046997.0,N
1529646735.6,286046997.0,N
1529646755.5,286046996.6,N
1529646775.3,286046996.8,N
1529646795.2,286046997.5,N
1529646815.9,286046999.0,N
1529646835.7,286046998.4,N
1529646855.6,286046999.8,N
1529646875.4,286047002.6,N
1529646895.2,286047000.8,N
1529646915.1,286047000.0,N
1529646916.0,286047000.0,N
1529646935.8,286046998.1,N
1529646955.7,286047000.6,N
1529646975.5,286046999.8,N
1529646995.3,286047000.8,N
1529647015.2,286047011.9,Y
1529647035.0,286047003.2,P
1529647035.9,286047003.2,N
1529647055.8,286047002.5,N
1529647075.6,286047002.4,N
1529647095.4,286047003.7,N
1529647115.3,286047001.6,N
1529647135.1,286047004.1,N
1529647155.9,286047004.4,Y
1529647175.7,286047000.7,P
1529647195.5,286047001.1,N
